Wind_Speed
3 2 2 3 2 3 3 3 2 2 1 0 1 1 1 2 2 2 2 2 2 2 2 2 3 3 3 4 4 3 3 3 4 4 4 5 5 5 5 5 6 6 6 6 6 6 6 7 7
3 3 3 3 2 2 2 2 2 2 1 0 0 0 1 1 1 1 2 2 2 2 3 3 3 3 4 4 4 3 3 4 4 4 5 5 5 5 5 6 6 6 6 6 6 6 6 7 7
4 3 3 3 2 2 2 2 2 2 2 1 1 1 1 1 1 1 1 1 2 3 3 4 4 4 4 4 4 4 4 4 4 5 5 6 6 6 6 6 7 7 7 7 7 7 7 7 8
4 5 4 3 2 2 2 2 2 2 2 2 2 2 2 2 2 2 2 2 3 3 4 5 5 5 5 5 5 5 5 5 5 5 6 6 7 7 7 7 7 7 8 8 8 8 8 8 8
4 5 4 3 3 3 3 3 3 3 3 3 3 3 3 3 3 3 4 4 4 4 4 5 5 5 5 5 6 6 6 6 6 6 6 7 7 7 7 8 8 7 8 8 8 8 9 9 8
4 4 4 4 4 4 4 4 4 4 4 4 5 4 4 4 4 4 4 4 5 5 5 5 5 5 5 5 6 6 7 7 7 7 7 7 8 8 8 8 8 8 8 8 8 9 9 9 9
6 5 4 4 4 5 5 4 5 5 4 4 4 4 5 5 5 5 5 5 5 5 6 6 6 5 5 5 6 6 7 7 7 7 7 8 8 8 8 8 8 9 9 9 9 9 10 9 10
7 6 5 5 5 5 5 5 5 5 5 5 4 5 5 5 5 6 6 6 6 6 6 6 6 6 5 6 6 6 6 7 7 7 7 8 8 8 8 8 8 8 9 9 9 10 10 10 10
7 7 7 7 6 6 6 6 5 5 5 5 5 5 5 5 6 7 7 6 6 6 6 7 6 6 6 6 6 6 7 7 7 7 7 7 8 8 8 8 8 9 9 9 9 10 10 11 11
7 7 7 7 6 6 6 6 5 5 5 5 5 5 5 6 6 7 7 6 6 7 7 6 6 6 6 7 7 7 7 7 7 7 8 8 8 8 8 8 9 9 9 9 9 10 11 11 12
8 7 7 6 7 6 6 6 6 5 6 6 6 6 6 6 7 7 7 7 7 7 7 7 6 6 7 7 7 7 8 7 8 8 8 8 9 9 9 9 9 9 9 9 9 10 11 11 12
8 8 7 7 7 7 7 6 6 5 6 6 6 7 6 6 7 7 7 7 7 7 6 6 7 7 7 7 7 7 8 7 8 8 8 9 10 10 10 10 10 9 9 9 10 10 11 12 12
9 9 9 9 8 8 8 7 6 6 6 6 6 6 7 7 7 7 7 7 7 7 7 6 7 7 7 7 7 7 7 7 8 9 10 10 11 11 11 11 11 10 10 10 11 11 11 12 11
9 10 10 10 9 9 9 8 7 7 6 6 6 6 6 6 6 7 7 7 7 7 7 7 7 7 7 7 7 7 8 8 8 9 10 11 11 12 12 12 11 10 11 11 11 11 11 11 11
11 11 11 11 11 10 9 8 8 8 7 7 7 7 7 6 6 7 7 7 7 7 7 7 7 7 8 8 8 9 9 9 9 10 11 12 12 12 12 12 12 11 11 11 11 11 12 11 11
12 12 11 11 11 11 10 9 9 8 8 7 7 7 7 6 7 7 7 7 7 7 7 8 8 8 9 9 9 9 10 10 10 10 11 12 12 12 12 12 12 12 12 11 12 12 12 12 12
12 12 12 11 11 11 10 10 10 9 8 8 8 8 8 8 8 8 7 7 7 7 8 8 9 9 10 10 10 10 10 11 11 11 12 12 11 12 12 12 12 12 12 12 12 12 12 13 13
13 13 13 12 12 12 11 11 11 10 10 9 9 9 9 8 8 8 8 8 8 7 8 8 9 9 9 9 9 9 10 10 11 11 11 12 12 12 12 12 12 12 12 12 12 12 12 13 13
13 13 13 13 13 13 12 11 11 11 11 10 10 10 10 10 9 9 9 8 8 8 8 9 9 9 9 9 9 10 10 10 10 10 11 11 12 12 13 13 13 12 13 14 13 14 14 14 14
14 14 13 13 14 14 13 13 12 12 12 12 12 11 11 11 10 10 10 9 9 9 9 9 10 10 10 10 10 10 10 10 11 11 11 12 12 12 12 13 13 13 14 15 14 15 15 15 15
15 14 14 14 14 14 14 14 13 13 13 13 13 12 12 12 11 12 11 10 10 10 10 10 11 11 11 11 11 11 11 11 12 12 13 13 13 13 14 13 12 13 14 15 15 16 16 17 17
15 14 15 15 15 15 15 15 13 13 14 15 14 13 13 13 12 12 12 12 11 11 11 11 11 11 12 12 12 12 12 12 12 13 13 14 14 15 14 14 14 15 15 15 16 17 17 18 18
15 15 16 16 16 16 16 17 14 14 15 15 15 14 14 14 14 13 13 13 12 12 12 12 12 12 12 12 12 13 13 13 13 14 14 15 15 16 16 15 15 16 16 16 17 17 18 18 18
15 15 16 16 17 17 16 17 16 15 15 15 15 15 15 15 14 14 14 14 13 13 13 13 13 12 13 13 13 13 14 14 14 15 15 16 16 16 16 16 16 17 17 18 18 18 19 19 19
15 15 16 17 17 17 16 16 16 15 15 16 15 16 16 16 15 15 14 15 14 14 14 14 14 14 14 13 14 14 14 15 15 15 16 16 17 18 18 18 18 18 19 19 19 20 20 20 21
16 16 17 18 18 17 17 17 16 16 16 16 16 16 15 15 15 15 15 15 15 15 15 15 15 15 15 15 15 15 15 16 16 16 16 17 18 18 19 19 19 19 19 20 21 21 22 21 21
17 17 17 18 19 18 17 17 16 16 16 17 16 16 16 15 16 16 16 16 17 16 16 16 16 16 16 16 16 17 16 17 17 17 17 18 19 19 19 19 20 20 21 21 21 22 22 22 22
18 18 18 18 19 19 18 17 16 16 16 17 17 17 16 16 16 17 17 17 17 16 17 17 17 17 18 18 18 18 18 18 19 18 19 19 19 20 20 21 21 21 22 23 23 23 23 23 22
19 19 19 20 20 19 19 18 17 17 17 17 17 18 18 18 18 18 18 18 18 19 19 19 19 19 19 19 19 19 19 20 20 20 20 21 21 21 21 21 22 22 23 23 23 23 23 23 23
19 20 19 20 20 21 21 20 18 18 18 18 17 18 19 19 18 19 19 19 20 20 20 20 20 19 20 20 20 20 20 21 21 22 22 22 22 22 23 23 23 23 24 24 24 25 24 24 25
Wind_Direction
203 211 214 222 229 216 214 212 214 212 194 167 216 225 211 224 229 231 233 229 226 251 272 287 292 302 298 287 279 284 290 300 304 305 306 303 300 302 297 296 294 293 292 293 293 288 284 283 279
208 219 219 231 231 222 221 217 207 207 208 218 109 217 212 207 225 241 241 239 249 264 279 291 295 297 292 289 287 286 290 300 303 301 301 305 302 300 298 297 294 290 290 294 291 289 283 281 281
222 229 230 236 244 258 232 226 231 219 228 269 297 293 290 281 255 259 271 287 293 285 283 286 288 289 286 283 285 284 286 292 297 299 297 296 296 296 294 296 292 289 287 287 287 286 283 281 281
238 237 236 238 250 255 240 247 243 229 242 261 278 286 285 287 277 269 274 281 283 282 284 286 287 290 282 280 281 283 283 289 295 301 300 294 290 291 291 289 288 286 284 283 282 284 282 281 281
240 238 232 243 244 246 262 264 255 253 255 269 276 280 279 282 277 280 285 286 283 283 286 285 288 288 281 281 281 282 282 285 292 294 296 293 290 287 287 285 285 283 285 284 283 283 281 279 279
235 233 229 245 249 252 264 267 268 270 272 277 275 280 278 274 274 276 280 287 289 290 291 289 291 293 290 287 287 285 284 284 286 288 289 289 288 285 283 285 282 282 284 283 282 281 277 276 276
242 243 240 248 252 254 258 260 264 275 281 284 281 276 275 271 272 272 276 282 286 288 290 292 290 291 291 294 291 292 291 289 289 289 290 288 285 284 283 285 283 278 279 281 277 278 272 272 273
247 250 249 250 252 253 255 258 265 273 279 280 281 278 276 271 270 271 271 274 281 284 287 289 290 285 286 289 294 296 294 294 294 293 294 295 290 285 285 288 288 284 280 278 276 277 270 271 270
246 248 250 252 251 250 255 258 261 266 271 274 276 277 275 274 272 273 274 277 282 285 288 289 285 281 283 285 289 292 290 290 292 289 290 292 289 287 288 288 287 287 283 279 278 277 276 273 270
245 246 248 250 249 252 255 255 260 263 269 270 274 277 276 276 276 275 274 279 283 284 284 286 283 279 278 279 284 287 288 289 291 288 285 287 288 286 286 287 287 285 284 281 278 276 276 277 275
246 246 247 246 249 253 257 259 261 262 267 269 273 279 279 280 280 280 276 277 283 284 282 279 277 282 280 279 280 284 287 289 290 288 284 286 287 285 284 287 287 283 279 278 276 276 279 280 279
252 249 249 250 252 253 253 253 257 263 271 274 273 276 279 278 274 276 273 277 282 283 282 279 278 281 279 278 281 284 289 289 291 291 287 287 286 283 283 284 284 283 281 280 280 281 283 282 280
252 250 249 251 255 254 251 250 256 263 270 279 281 281 279 275 270 277 279 280 279 280 282 283 282 283 278 277 284 288 290 289 289 292 290 287 285 285 284 283 281 283 284 283 284 284 284 282 280
250 249 249 251 253 253 251 251 256 263 270 280 282 282 282 280 275 275 280 279 276 274 278 279 277 277 277 278 281 283 286 291 289 289 288 286 285 285 285 283 282 283 285 287 287 287 287 284 281
247 247 248 250 252 250 252 255 257 261 269 276 280 284 282 280 280 280 279 275 273 269 268 271 275 274 275 278 279 279 287 293 290 287 285 287 288 285 286 285 284 285 286 285 285 283 283 283 283
245 245 247 248 250 250 252 255 258 259 265 271 276 281 282 278 275 273 272 269 268 266 263 269 272 275 278 282 283 282 287 292 290 287 286 289 289 287 286 286 284 283 284 284 283 282 280 280 282
244 244 246 248 249 253 253 256 259 260 265 269 273 275 277 279 277 276 273 269 267 270 271 273 275 277 279 283 284 283 284 286 288 290 289 286 288 288 284 284 286 284 282 284 286 282 279 281 283
249 250 251 252 252 253 254 255 257 261 260 263 267 270 273 276 277 278 277 273 272 276 282 283 285 287 290 290 289 289 290 289 288 290 289 287 287 287 285 283 284 282 281 282 284 282 281 281 283
250 253 252 250 252 254 255 254 255 260 261 261 264 267 270 271 273 276 276 272 274 278 283 285 288 292 293 291 289 290 290 292 293 295 296 294 292 290 286 283 280 279 281 282 283 283 283 284 283
252 252 253 251 252 255 254 255 256 261 264 264 263 262 265 267 270 273 273 273 278 282 284 284 287 290 291 290 288 287 288 289 290 290 291 294 295 295 294 289 281 281 282 280 281 283 284 284 284
257 253 253 254 254 256 257 256 257 261 264 264 262 262 262 264 268 272 270 270 275 280 282 283 285 287 289 288 286 285 288 290 289 289 288 288 289 292 293 291 288 288 286 284 282 281 283 283 284
259 255 255 255 256 257 259 260 256 259 262 263 262 262 263 265 268 270 270 269 271 275 279 282 285 287 287 288 286 285 285 288 288 288 287 287 288 289 289 288 287 288 288 286 283 284 284 284 284
257 256 256 257 257 258 259 263 260 257 260 263 264 265 265 265 265 267 269 269 270 271 274 280 284 287 287 285 285 286 286 288 288 287 287 288 289 290 290 288 287 286 285 285 285 287 286 284 283
257 257 256 257 258 258 259 263 264 263 263 264 264 265 266 266 267 268 268 267 268 269 272 276 279 282 285 285 286 287 288 289 290 289 288 291 291 291 291 290 287 285 284 284 284 286 286 285 284
260 259 259 259 258 260 263 264 268 267 266 264 262 261 264 267 269 268 266 266 267 269 270 272 275 277 281 285 287 288 288 290 291 290 289 291 293 293 291 288 286 285 284 284 285 285 286 285 285
261 260 261 262 262 261 262 265 267 270 268 265 263 262 263 265 266 267 266 265 267 269 270 271 272 275 278 282 284 286 289 290 291 291 291 291 293 294 292 288 286 285 286 287 287 287 287 286 285
259 259 261 262 264 264 265 267 267 269 267 266 265 263 262 262 265 267 267 264 267 269 271 273 274 274 276 279 281 283 286 291 291 290 290 292 293 293 293 291 288 286 286 287 287 288 288 286 285
259 260 260 261 262 264 266 269 271 269 269 267 263 261 263 261 264 266 266 263 266 268 270 273 275 275 275 277 280 283 284 288 290 288 288 289 291 291 290 290 289 287 286 286 285 287 287 285 284
259 259 260 263 263 265 267 268 270 270 270 268 264 262 263 264 265 268 269 267 266 269 271 273 274 275 275 275 278 281 284 286 288 288 287 288 290 291 290 288 289 288 287 287 287 286 285 285 284
259 260 261 261 263 265 268 268 268 268 269 267 266 265 266 268 268 270 272 271 271 271 272 274 273 275 276 276 278 280 283 285 285 285 285 286 289 290 290 289 289 288 287 287 286 286 285 284 282
Height
5862 5863 5864 5865 5866 5866 5866 5867 5867 5867 5868 5868 5868 5868 5869 5870 5871 5873 5872 5870 5871 5871 5871 5871 5871 5871 5871 5871 5871 5871 5871 5871 5871 5871 5870 5870 5870 5870 5870 5870 5870 5870 5871 5871 5871 5871 5871 5871 5871
5862 5864 5865 5866 5866 5866 5867 5867 5867 5868 5868 5868 5868 5868 5868 5869 5869 5870 5870 5870 5870 5870 5870 5870 5870 5870 5870 5870 5870 5870 5870 5870 5870 5870 5870 5870 5870 5869 5869 5869 5869 5869 5869 5870 5870 5870 5870 5870 5870
5862 5864 5866 5866 5866 5867 5867 5867 5867 5867 5867 5868 5868 5868 5868 5869 5869 5869 5869 5869 5870 5870 5870 5870 5870 5870 5869 5869 5869 5869 5869 5869 5869 5869 5869 5869 5869 5868 5868 5868 5868 5868 5868 5868 5868 5868 5868 5868 5869
5863 5864 5866 5866 5866 5867 5867 5867 5867 5867 5867 5867 5868 5868 5868 5869 5869 5869 5869 5869 5869 5869 5869 5869 5869 5869 5869 5868 5868 5868 5869 5869 5868 5868 5868 5868 5867 5867 5867 5867 5867 5867 5867 5867 5867 5867 5867 5867 5867
5862 5863 5865 5865 5866 5866 5866 5866 5867 5867 5867 5867 5867 5867 5868 5868 5868 5868 5868 5869 5869 5869 5868 5868 5868 5868 5868 5867 5867 5867 5867 5867 5867 5867 5867 5866 5866 5866 5865 5865 5865 5865 5865 5865 5865 5865 5865 5865 5865
5863 5863 5864 5865 5865 5866 5866 5866 5866 5866 5866 5866 5867 5867 5867 5867 5867 5867 5868 5868 5868 5868 5867 5867 5867 5867 5867 5866 5866 5866 5866 5866 5866 5865 5865 5865 5864 5864 5864 5864 5864 5864 5864 5864 5864 5864 5864 5863 5863
5863 5863 5863 5864 5865 5865 5866 5865 5866 5866 5866 5866 5866 5866 5866 5866 5866 5866 5867 5867 5867 5867 5866 5866 5866 5866 5865 5865 5865 5865 5865 5864 5864 5864 5863 5863 5863 5862 5862 5862 5862 5862 5862 5862 5862 5862 5861 5862 5862
5861 5863 5863 5863 5864 5864 5865 5865 5865 5865 5865 5865 5865 5865 5865 5865 5865 5865 5866 5866 5866 5865 5865 5865 5865 5864 5864 5864 5864 5863 5863 5863 5862 5862 5862 5862 5861 5861 5861 5860 5860 5860 5860 5860 5860 5860 5860 5860 5860
5860 5862 5862 5862 5863 5863 5863 5864 5864 5864 5864 5864 5864 5864 5864 5864 5864 5864 5864 5864 5864 5864 5864 5863 5863 5863 5863 5862 5862 5862 5862 5861 5861 5861 5860 5860 5860 5859 5859 5859 5858 5858 5858 5858 5858 5858 5857 5857 5857
5859 5861 5861 5861 5862 5862 5862 5863 5863 5863 5863 5863 5863 5863 5863 5863 5862 5863 5863 5863 5863 5862 5862 5862 5861 5861 5861 5861 5861 5860 5860 5860 5859 5859 5859 5858 5858 5858 5857 5857 5856 5856 5855 5855 5855 5856 5855 5855 5855
5858 5859 5860 5860 5860 5861 5861 5861 5862 5862 5862 5862 5862 5862 5862 5861 5861 5861 5861 5861 5861 5860 5860 5860 5860 5860 5860 5859 5859 5859 5858 5858 5857 5857 5857 5856 5856 5856 5855 5855 5854 5854 5853 5853 5853 5853 5853 5853 5853
5857 5857 5858 5858 5859 5859 5860 5860 5861 5861 5861 5861 5861 5861 5860 5860 5860 5860 5859 5859 5859 5858 5858 5858 5858 5858 5858 5858 5857 5857 5857 5856 5856 5855 5855 5854 5854 5854 5853 5853 5852 5852 5852 5851 5851 5851 5851 5851 5850
5855 5856 5856 5857 5857 5858 5859 5859 5860 5860 5859 5859 5859 5859 5859 5859 5858 5858 5858 5857 5857 5857 5857 5857 5857 5856 5856 5856 5856 5855 5855 5854 5854 5853 5853 5852 5852 5851 5851 5850 5850 5850 5849 5849 5849 5849 5848 5848 5848
5853 5854 5854 5855 5856 5856 5857 5858 5859 5858 5858 5858 5858 5858 5857 5857 5857 5857 5856 5856 5856 5855 5855 5855 5855 5854 5854 5854 5854 5853 5853 5853 5852 5852 5851 5850 5850 5849 5849 5848 5848 5847 5847 5847 5846 5846 5846 5846 5845
5851 5852 5853 5853 5854 5855 5856 5857 5857 5857 5857 5857 5856 5856 5856 5856 5855 5855 5855 5854 5854 5854 5853 5853 5853 5853 5852 5852 5852 5852 5851 5851 5850 5849 5849 5848 5847 5847 5846 5846 5845 5845 5845 5844 5844 5843 5843 5843 5843
5848 5850 5851 5851 5852 5853 5855 5856 5855 5855 5855 5855 5855 5855 5854 5854 5854 5854 5853 5853 5852 5852 5852 5851 5851 5851 5850 5850 5850 5850 5849 5848 5848 5847 5846 5845 5845 5844 5843 5843 5843 5842 5842 5841 5841 5841 5840 5840 5840
5846 5847 5848 5849 5850 5851 5852 5853 5853 5853 5853 5853 5853 5853 5852 5852 5852 5852 5851 5851 5850 5850 5850 5850 5849 5849 5848 5848 5848 5847 5847 5846 5845 5844 5844 5843 5842 5841 5841 5840 5840 5840 5839 5839 5839 5838 5838 5837 5837
5844 5845 5846 5847 5848 5849 5849 5850 5851 5851 5851 5851 5851 5851 5851 5850 5850 5849 5849 5849 5849 5848 5848 5848 5847 5846 5846 5846 5845 5845 5844 5844 5843 5842 5841 5840 5840 5839 5838 5837 5837 5837 5837 5836 5836 5835 5835 5834 5834
5841 5843 5844 5845 5845 5846 5847 5847 5848 5848 5848 5849 5848 5848 5848 5848 5847 5847 5847 5847 5847 5846 5846 5845 5845 5844 5844 5843 5843 5842 5842 5841 5840 5839 5838 5837 5837 5836 5835 5835 5834 5834 5834 5833 5833 5832 5832 5831 5830
5839 5840 5841 5842 5842 5843 5844 5845 5845 5845 5846 5846 5846 5846 5845 5845 5845 5845 5844 5844 5844 5844 5844 5843 5842 5842 5841 5841 5840 5840 5839 5838 5837 5837 5836 5835 5834 5833 5832 5832 5831 5831 5830 5830 5829 5829 5828 5827 5826
5836 5837 5838 5839 5839 5840 5841 5842 5842 5843 5842 5842 5842 5842 5842 5842 5842 5842 5842 5842 5842 5842 5841 5841 5840 5839 5839 5838 5837 5837 5836 5835 5835 5834 5833 5832 5831 5830 5830 5829 5828 5827 5826 5826 5825 5825 5824 5823 5822
5833 5834 5834 5835 5836 5836 5838 5838 5840 5840 5839 5839 5839 5839 5839 5839 5839 5839 5839 5839 5839 5839 5838 5838 5837 5836 5836 5835 5834 5834 5833 5832 5831 5831 5830 5829 5828 5827 5826 5825 5824 5824 5823 5822 5821 5820 5819 5818 5817
5830 5830 5831 5831 5832 5833 5834 5834 5836 5836 5835 5836 5836 5836 5836 5836 5836 5836 5835 5835 5835 5835 5835 5834 5834 5833 5832 5832 5831 5831 5830 5829 5828 5827 5826 5825 5824 5823 5822 5821 5820 5820 5819 5818 5817 5816 5814 5813 5812
5826 5827 5827 5828 5828 5829 5830 5830 5831 5832 5832 5832 5832 5832 5832 5832 5832 5832 5832 5832 5832 5832 5832 5831 5831 5830 5829 5829 5828 5827 5826 5825 5824 5823 5822 5821 5820 5819 5818 5817 5816 5815 5814 5813 5812 5811 5810 5808 5807
5823 5824 5824 5824 5824 5826 5826 5826 5827 5828 5828 5828 5828 5828 5828 5828 5828 5828 5828 5828 5828 5828 5828 5828 5827 5827 5826 5825 5824 5823 5822 5821 5820 5819 5818 5817 5816 5815 5814 5813 5812 5811 5809 5808 5807 5806 5804 5803 5801
5818 5819 5820 5820 5820 5821 5822 5822 5824 5823 5823 5823 5824 5824 5824 5824 5824 5824 5824 5824 5824 5824 5824 5824 5823 5823 5822 5821 5820 5819 5819 5818 5817 5815 5814 5813 5812 5810 5809 5808 5807 5806 5804 5803 5802 5800 5799 5797 5796
5814 5815 5816 5816 5816 5816 5817 5818 5819 5819 5819 5819 5820 5820 5820 5820 5820 5820 5820 5820 5820 5820 5820 5820 5819 5818 5818 5817 5816 5815 5814 5813 5812 5811 5810 5809 5807 5806 5804 5803 5802 5800 5799 5798 5796 5794 5793 5791 5790
5810 5810 5811 5811 5811 5811 5813 5814 5815 5815 5815 5815 5815 5815 5816 5816 5816 5816 5815 5815 5815 5815 5815 5815 5814 5814 5813 5812 5811 5810 5810 5809 5807 5806 5805 5804 5802 5801 5799 5798 5796 5795 5794 5792 5790 5789 5787 5785 5784
5805 5806 5806 5806 5807 5807 5808 5812 5810 5810 5810 5810 5810 5810 5811 5811 5811 5811 5811 5811 5810 5810 5810 5810 5809 5809 5808 5807 5807 5806 5805 5803 5802 5801 5800 5798 5797 5795 5794 5792 5791 5789 5788 5786 5784 5783 5781 5779 5778
5800 5801 5801 5802 5802 5802 5802 5807 5805 5805 5805 5805 5805 5805 5806 5806 5805 5805 5805 5805 5805 5805 5805 5804 5804 5803 5803 5802 5801 5800 5799 5798 5797 5795 5794 5792 5791 5789 5788 5786 5785 5783 5781 5780 5778 5776 5774 5773 5771